This is the latest recevied weather packets stored in our database for station/object K6CQU-13. If no packets are shown the sender has not sent any weather packets the latest 10 day(s).
| Time | Temp. | Humidity | Pressure | Rain* | Wind** | Luminosity | Snow |
|---|---|---|---|---|---|---|---|
| 1788017718 | 18.33° C | 75% | 1014.1 hPa | 0 mm | - | 326 W/m² | - |
| 1788017417 | 18.33° C | 76% | 1014.1 hPa | 0 mm | - | 309 W/m² | - |
| 1788017117 | 18.33° C | 77% | 1014 hPa | 0 mm | - | 291 W/m² | - |
| 1788016817 | 17.78° C | 78% | 1014 hPa | 0 mm | - | 274 W/m² | - |
| 1788016517 | 17.78° C | 78% | 1014.1 hPa | 0 mm | - | 256 W/m² | - |
| 1788016217 | 17.78° C | 80% | 1014.1 hPa | 0 mm | - | 240 W/m² | - |
| 1788015917 | 17.22° C | 80% | 1014.1 hPa | 0 mm | - | 225 W/m² | - |
| 1788015617 | 17.22° C | 79% | 1014 hPa | 0 mm | - | 210 W/m² | - |
| 1788015317 | 17.22° C | 78% | 1014 hPa | 0 mm | - | 195 W/m² | - |
| 1788015017 | 17.22° C | 79% | 1014 hPa | 0 mm | - | 179 W/m² | - |
| 1788014717 | 17.22° C | 77% | 1014.1 hPa | 0 mm | - | 164 W/m² | - |
| 1788014417 | 17.22° C | 79% | 1014 hPa | 0 mm | - | 149 W/m² | - |
| 1788014117 | 16.67° C | 81% | 1014 hPa | 0 mm | - | 133 W/m² | - |
| 1788013817 | 16.11° C | 83% | 1013.9 hPa | 0 mm | - | 120 W/m² | - |
| 1788013519 | 16.11° C | 84% | 1013.9 hPa | 0 mm | - | 106 W/m² | - |
| 1788013217 | 15.56° C | 86% | 1013.9 hPa | 0 mm | - | 90 W/m² | - |
| 1788012917 | 15° C | 86% | 1013.7 hPa | 0 mm | - | 74 W/m² | - |
| 1788012617 | 15° C | 86% | 1013.8 hPa | 0 mm | - | 58 W/m² | - |
| 1788012317 | 15° C | 86% | 1013.7 hPa | 0 mm | - | 49 W/m² | - |
| 1788012017 | 15° C | 85% | 1013.6 hPa | 0 mm | - | 25 W/m² | - |
| 1788011717 | 15° C | 85% | 1013.5 hPa | 0 mm | - | 12 W/m² | - |
| 1788011417 | 15° C | 85% | 1013.4 hPa | 0 mm | - | 11 W/m² | - |
| 1788011117 | 15° C | 85% | 1013.4 hPa | 0 mm | - | 8 W/m² | - |
| 1788010817 | 15° C | 85% | 1013.4 hPa | 0 mm | - | 6 W/m² | - |
| 1788010517 | 15° C | 85% | 1013.3 hPa | 0 mm | - | 2 W/m² | - |
* Rain latest hour (hover to see other rain measurements)
** Current wind speed in m/s (hover to see current wind gust speed)